Tracking 31027 objects as of 19-Jul-2025
HD Live streaming from Space Station
objects crossing your sky now

BREEZE-M R/B

Track BREEZE-M R/B now!


NORAD ID: 38868
Int'l Code: 2012-057B
Perigee: 37,079.9 km
Apogee: 41,908.7 km
Inclination: 11.2 °
Period: 1,629.2 minutes
Semi major axis: 45865 km
RCS: 0.003 m2 (small)
Launch date: October 14, 2012
Source: Commonwealth of Independent States (former USSR) (CIS)
Launch site: TYURATAM MISSILE AND SPACE COMPLEX (TTMTR)

Note: This is a ROCKET BODY
Your satellite tracking list
FENGYUN 1C DEB
Track 1 satellite(s)




NASA's NSSDC Master Catalog

Two Line Element Set (TLE):
1 38868U 12057B   25199.57004182 -.00000140  00000-0  00000-0 0  9997
2 38868  11.2185  59.0444 0526416  38.3618 118.9819  0.88384613 40880
Source of the keplerian elements: AFSPC